CAPE
0 0 0 0 0 0 0 0 0 0 0 0 0 0 0 0 0 0 0 0 0 0
0 0 0 0 0 0 0 0 0 0 0 0 0 0 0 0 0 0 0 0 0 0
0 0 0 0 0 0 0 0 0 0 0 0 0 0 0 0 0 0 0 0 0 0
0 0 0 0 0 0 0 0 0 0 0 0 0 0 0 0 0 0 0 0 0 0
0 0 0 0 0 0 0 0 0 0 0 0 0 0 0 0 0 0 0 0 0 0
0 0 0 0 0 0 0 0 0 0 0 0 0 0 0 0 0 0 0 0 0 0
0 0 0 0 0 0 0 0 0 0 0 0 0 0 0 0 0 0 0 0 0 0
0 0 0 0 0 0 0 0 0 0 0 0 0 0 0 0 0 0 0 0 0 0
0 0 0 0 0 0 0 0 0 0 0 0 0 0 0 0 0 0 0 0 0 0
0 0 0 0 0 0 0 0 0 0 0 0 0 0 0 0 0 0 0 0 0 0
0 0 0 0 0 0 0 0 0 0 0 0 0 0 0 0 0 0 0 0 0 0
0 0 0 0 0 0 0 0 0 0 0 0 0 0 0 0 0 0 0 0 0 0
0 0 0 0 0 0 0 0 0 0 0 0 0 0 0 0 0 0 0 0 0 0
0 0 0 0 0 0 0 0 0 0 0 0 0 0 0 0 0 0 0 0 0 0
CIN
0 0 0 0 0 0 0 0 0 0 0 0 0 0 0 0 0 0 0 0 0 0
0 0 0 0 0 0 0 0 0 0 0 0 0 0 0 0 0 0 0 0 0 0
0 0 0 0 0 0 0 0 0 0 0 0 0 0 0 0 0 0 0 0 0 0
0 0 0 0 0 0 0 0 0 0 0 0 0 0 0 0 0 0 0 0 0 0
0 0 0 0 0 0 0 0 0 0 0 0 0 0 0 0 0 0 0 0 0 0
0 0 0 0 0 0 0 0 0 0 0 0 0 0 0 0 0 0 0 0 0 0
0 0 0 0 0 0 0 0 0 0 0 0 0 0 0 0 0 0 0 0 0 0
0 0 0 0 0 0 0 0 0 0 0 0 0 0 0 0 0 0 0 0 0 0
0 0 0 0 0 0 0 0 0 0 0 0 0 0 0 0 0 0 0 0 0 0
0 0 0 0 0 0 0 0 0 0 0 0 0 0 0 0 0 0 0 0 0 0
0 0 0 0 0 0 0 0 0 0 0 0 0 0 0 0 0 0 0 0 0 0
0 0 0 0 0 0 0 0 0 0 0 0 0 0 0 0 0 0 0 0 0 0
0 0 0 0 0 0 0 0 0 0 0 0 0 0 0 0 0 0 0 0 0 0
0 0 0 0 0 0 0 0 0 0 0 0 0 0 0 0 0 0 0 0 0 0
Wind_Speed
12 12 11 11 10 9 9 9 8 8 9 10 10 11 12 13 14 14 14 13 14 17
11 12 12 11 11 11 10 10 9 8 8 9 10 10 11 12 14 14 14 15 14 15
10 10 11 11 12 12 12 11 10 9 9 9 9 10 10 11 13 14 14 14 14 15
9 9 10 11 12 12 12 11 11 10 10 10 9 9 10 11 12 12 13 14 15 15
9 9 9 10 10 10 11 11 11 11 11 11 10 10 10 11 12 12 13 13 14 14
10 8 8 9 9 9 9 10 10 11 12 12 12 11 12 12 12 12 12 12 13 14
11 10 9 7 8 9 9 11 11 11 11 12 13 13 13 13 13 13 13 13 13 14
12 12 10 9 8 9 10 11 12 13 12 12 13 14 14 14 14 14 14 13 13 13
14 13 12 12 11 10 10 11 12 14 14 15 15 15 15 15 15 15 15 15 14 14
15 16 15 13 14 14 13 12 12 13 15 16 17 16 17 16 16 16 16 15 15 14
16 16 16 16 15 16 15 16 16 16 17 17 19 19 18 18 18 18 17 17 15 14
15 16 17 17 17 18 18 17 17 19 19 19 21 20 20 20 20 20 19 18 17 15
15 16 17 18 19 20 22 24 25 25 24 23 23 22 21 21 22 22 22 20 19 18
16 17 18 19 22 24 26 28 29 29 28 27 25 24 23 22 23 23 23 22 20 19
Wind_Direction
263 261 264 265 275 277 278 285 291 285 286 293 298 300 307 313 316 320 321 323 328 331
272 267 266 269 271 276 273 281 278 277 280 284 290 296 300 304 308 312 315 317 321 325
278 273 274 277 272 271 272 272 277 272 276 281 283 288 291 297 304 306 309 312 314 319
292 282 280 275 277 273 275 270 268 274 274 276 280 277 283 290 295 296 302 307 311 312
301 295 281 279 280 280 280 280 280 279 278 277 275 279 279 281 291 290 295 298 303 306
323 309 298 298 294 287 281 285 284 279 275 278 276 276 276 280 281 285 286 291 296 300
336 330 322 312 305 299 291 289 287 283 284 280 279 278 281 281 283 284 284 286 289 295
346 342 338 329 320 315 305 300 295 296 292 289 285 283 280 281 284 283 285 284 284 287
350 348 344 339 334 327 318 311 304 300 296 295 288 284 277 279 282 285 283 282 280 284
348 346 345 344 336 329 323 319 306 299 298 294 293 286 283 277 286 286 285 285 287 283
343 342 341 339 336 333 330 324 319 313 305 298 298 293 286 283 284 286 286 285 282 277
335 335 335 332 331 328 327 323 317 314 308 301 300 296 289 287 287 285 281 283 283 275
328 327 327 327 327 326 323 321 320 317 313 307 302 300 291 286 288 287 287 284 282 273
317 318 319 321 322 323 322 321 320 318 317 313 309 304 297 288 285 286 288 287 287 282